Погода в Красивке

Россия / Тамбовская область     52°15′36″N   42°30′24″E
темп.,
°C
ветер,
м/с
пор.,
м/с
влажн.,
%
обл.,
%
осадки,
мм/ч
давл.,
гПа
погр.,
м
6 мая, чт
чт600:00+7ююз37795 0.0 1016116
03:00+6ююз36805 0.0 101682
06:00+8ю388235 0.0 1016175
09:00+13ю6965100 0.0 1016520
12:00+16ююз7953100 0.0 10151603
15:00+17ююз7950100 0.0 10141849
18:00+15ю5962100 0.0 1014395
21:00+11ю41175100 0.0 1014206
7 мая, пт
пт700:00+12ю51267100 0.0 1013302
03:00+11ююв51270100 0.0 1013303
06:00+10ю41078100 0.0 1013309
09:00+13зюз4672100 0.0 1013693
12:00+9ссз6883100 0.2 1016461
15:00+11сз4475100 0.2 1016644
18:00+12ссв45680 0.0 1017822
21:00+7в33850 0.0 101841
8 мая, сб
сб800:00+6в228898 0.0 101824
03:00+5в118969 0.0 101810
06:00+7юв2386100 0.0 101783
09:00+11ююв4668100 0.0 1015433
12:00+16ю685675 0.0 1013942
15:00+19ю7116093 0.1 10111935
18:00+16ю41175100 0.2 1010320
21:00+13ю2493100 1.4 1010131
9 мая, вс
вс900:00+12юз3894100 0.1 1009353
03:00+8сз51090100 0.2 1012576
06:00+7сз4690100 0.0 1014483
09:00+7ссз5780100 0.1 1014611
12:00+7с71189100 1.8 1013782
15:00+6с61091100 5.5 1016819
18:00+6с61192100 3.4 1017945
21:00+6с81391100 5.9 1017883
10 мая, пн
пн1000:00+6ссв91693100 5.7 1017755
03:00+6ссв91793100 10.4 1018800
06:00+7ссв101991100 1.9 1019829
09:00+7ссв111890100 2.6 1020793
12:00+7ссв101791100 0.1 1020630
15:00+8св101893100 0.6 1021555
18:00+9ссв81692100 0.2 1021530
21:00+10св61594100 0.6 1022502